Weather Roundup
Issued by NWS Springfield, MO

Home | Current Version | Previous Version | Text Only | Print | Product List | Glossary On
Versions: 1 2 3 4 5 6 7 8 9 10 11 12 13 14 15 16 17 18 19 20 21 22 23 24 25 26 27 28 29 30 31 32 33 34 35 36 37 38 39 40 41 42 43 44 45 46 47 48 49 50
000
NZUS99 KSGF 030607
HRRSGF

HOURLY WEATHER
NATIONAL WEATHER SERVICE SPRINGFIELD MO
100 AM CDT MON AUG 03 2015

......SGF CWA......

CITY           SKY/WX    TMP DP  RH WIND       PRES   REMARKS
SPRINGFIELD    CLEAR     71  63  75 S3        29.94S
6HR MIN TEMP:  71; 6HR MAX TEMP:  87;

JOPLIN         CLEAR     71  66  84 S5        29.93F
6HR MIN TEMP:  71; 6HR MAX TEMP:  89;

WEST PLAINS    CLEAR     73  68  84 SW6       29.96F
6HR MIN TEMP:  72; 6HR MAX TEMP:  86;

ROLLA          PTCLDY    76  67  73 W7G18     29.92S
6HR MIN TEMP:  72; 6HR MAX TEMP:  87;

OSAGE BEACH    CLEAR     72  66  83 SW5       29.92F
BRANSON        CLEAR     73  64  73 SW3       29.97S

......SURROUNDING SGF CWA......

CITY           SKY/WX    TMP DP  RH WIND       PRES   REMARKS
CHANUTE        PTCLDY    71  65  81 S7        29.92S
PARSONS        PTCLDY    69  67  93 CALM      29.93S
COFFEYVILLE    CLEAR     71  66  84 S3        29.92S
EMPORIA        PTCLDY    74  68  81 S10       29.90S
GROVE OK       CLEAR     73  73 100 CALM      29.94S
ROGERS AR      CLEAR     73  70  90 SE5       29.97F
SILOAM SPRINGS CLEAR     73  64  73 E5        29.96S
HARRISON AR    CLEAR     69  65  86 SW3       29.97S
NEAR YELLVILLE CLEAR     73  66  78 CALM      29.92S

......KANSAS AND MISSOURI......

CITY           SKY/WX    TMP DP  RH WIND       PRES   REMARKS
KANSAS CTY INT PTCLDY    76  69  79 SE9       29.89F
DOWNTOWN KC    CLEAR     79  70  74 E3        29.88F
COLUMBIA       CLOUDY    77  62  59 NW10      29.92R
SEDALIA        PTCLDY    76  63  64 NE6       29.95R
ST JOSEPH      PTCLDY    74  64  71 S6        29.87F
ST LOUIS       CLOUDY    83  66  56 W6        29.85S
SPIRIT OF STL  CLOUDY    79  70  74 SW7       29.83F
KIRKSVILLE     LGT RAIN  75  56  51 SW8       29.85R
WICHITA        MOCLDY    73  67  81 S6        29.93R
TOPEKA         PTCLDY    79  69  71 SW5       29.87S
OLATHE         CLEAR     76  65  68 S5        29.91R

......TENNESSEE......

CITY           SKY/WX    TMP DP  RH WIND       PRES   REMARKS
MEMPHIS        CLEAR     79  68  69 CALM      29.92S
NASHVILLE      PTCLDY    68  65  90 S3        29.93S

......ARKANSAS.......

CITY           SKY/WX    TMP DP  RH WIND       PRES   REMARKS
FAYETTEVILLE   MOCLDY    69  69 100 S5        29.97S
FT SMITH       CLEAR     78  70  76 NE5       29.91S
LITTLE ROCK    PTCLDY    78  70  76 CALM      29.92S

......OKLAHOMA.......

CITY           SKY/WX    TMP DP  RH WIND       PRES   REMARKS
TULSA          MOCLDY    77  70  79 SE5       29.91S
PONCA CITY     PTCLDY    77  66  68 S6        29.91S
MCALESTER      MOCLDY    75  64  68 CALM      29.93S
OKLAHOMA CITY  MOCLDY    74  68  81 S5        29.92S

......IOWA............

CITY           SKY/WX    TMP DP  RH WIND       PRES   REMARKS
DES MOINES     PTCLDY    74  62  66 N8        29.87R
QUAD CITIES    PTCLDY    75  61  61 W14       29.78R

......ILLINOIS........

CITY           SKY/WX    TMP DP  RH WIND       PRES   REMARKS
QUINCY         CLOUDY    76  56  49 W6        29.80R
CHICAGO        CLOUDY    67  66  97 W3        29.75R



USA.gov is the U.S. government's official web portal to all federal, state and local government web resources and services.